This demonstration page uses our WeatherBlox Daily Observations layout. Learn more.

Left ArrowRight Arrow

38.80484, -77.04692

Hourly Observations for May 17, 2022

Temp ( °F °C ) Dew Point ( °F °C ) Humidity (%) Winds ( mph kmh ) Pressure ( in mb ) Visibility ( mi km ) Precip ( " mm )
12:52 am 00:52 Clear 65 18.3 49 9.4 56 56 W 10 17 29.84 1011 10 16 0.00 0.00
1:52 am 01:52 Clear 64 17.8 48 8.9 56 56 W 12 19 29.85 1011 10 16 0.00 0.00
2:52 am 02:52 Clear 60 15.6 49 9.4 67 67 SW 5 7 29.84 1011 10 16 0.00 0.00
3:52 am 03:52 Clear 61 16.1 47 8.3 60 60 W 5 7 29.85 1011 10 16 0.00 0.00
4:52 am 04:52 Clear 59 15 47 8.3 64 64 WSW 7 11 29.85 1011 10 16 0.00 0.00
5:52 am 05:52 Clear 57 13.9 49 9.4 74 74 SSW 8 13 29.86 1011 10 16 0.00 0.00
6:52 am 06:52 Sunny 61 16.1 49 9.4 65 65 SW 7 11 29.87 1012 10 16 0.00 0.00
7:52 am 07:52 Sunny 66 18.9 50 10 56 56 WSW 7 11 29.90 1012 10 16 0.00 0.00
8:52 am 08:52 Sunny 69 20.6 51 10.6 53 53 SSW 5 7 29.90 1013 10 16 0.00 0.00
9:52 am 09:52 Sunny 74 23.3 47 8.3 38 38 W 10 17 29.90 1013 10 16 0.00 0.00
10:52 am 10:52 Sunny 76 24.4 46 7.8 35 35 SW 14 22 29.89 1012 10 16 0.00 0.00
11:08 am 11:08 Sunny 77 25 44 6.7 31 31 W 10 17 29.89 1012 10 16 0.00 0.00
11:52 am 11:52 Sunny 78 25.6 45 7.2 31 31 W 13 20 29.88 1012 10 16 0.00 0.00
12:52 pm 12:52 Partly Cloudy 80 26.7 47 8.3 31 31 SW 16 26 29.86 1011 10 16 0.00 0.00
1:52 pm 13:52 Partly Cloudy 79 26.1 45 7.2 30 30 WSW 20 31 29.84 1011 10 16 0.00 0.00
2:12 pm 14:12 Mostly Cloudy 80 26.7 46 7.8 30 30 W 15 24 29.84 1010 10 16 0.00 0.00
2:52 pm 14:52 Mostly Cloudy 79 26.1 47 8.3 32 32 SW 12 19 29.82 1010 10 16 0.00 0.00
3:52 pm 15:52 Mostly Sunny 81 27.2 48 8.9 32 32 WSW 12 19 29.80 1009 10 16 0.00 0.00
4:52 pm 16:52 Mostly Cloudy 82 27.8 48 8.9 31 31 W 12 19 29.80 1009 10 16 0.00 0.00
5:52 pm 17:52 Partly Cloudy 84 28.9 42 5.6 23 23 W 13 20 29.82 1010 10 16 0.00 0.00
6:52 pm 18:52 Partly Cloudy 82 27.8 42 5.6 24 24 NW 12 19 29.82 1010 10 16 0.00 0.00
7:52 pm 19:52 Mostly Sunny 78 25.6 44 6.7 30 30 NNW 13 20 29.85 1011 10 16 0.00 0.00
8:52 pm 20:52 Mostly Clear 75 23.9 44 6.7 33 33 NNW 14 22 29.88 1012 10 16 0.00 0.00
9:52 pm 21:52 Mostly Clear 72 22.2 42 5.6 34 34 N 10 17 29.91 1013 10 16 0.00 0.00
10:52 pm 22:52 Mostly Clear 69 20.6 44 6.7 41 41 N 13 20 29.93 1013 10 16 0.00 0.00
11:52 pm 23:52 Mostly Clear 66 18.9 44 6.7 45 45 N 9 15 29.95 1014 10 16 0.00 0.00

Powered by AerisWeather